Home > Time Zones > World Clock > Weather > Japan > Kyoto > Past weeks

Flag for Japan Weather past 2 weeks in Kyoto, Japan

Now
66 °F

Passing clouds.


Feels Like: 66 °F
Forecast: 56 / 67 °F
Wind: 9 mph from East

Location: Osaka International Airport

Current Time: Apr 2, 2015 at 12:55:43 PM

Latest Report: Apr 2, 2015 at 12:00 PM


Visibility: N/A

Pressure: 30.01 "Hg

Humidity: 40%

Dew point: 41 °F

Location of KyotoLocation

Historic Weather in Kyoto — Graph

°F

Kyoto temperature yesterday

Maximum temperature yesterday: 63 °F (at 4:00 PM)
Minimum temperature yesterday: 55 °F (at 7:00 PM)
Average temperature yesterday: 60 °F

Past Weeks' High & Low Weather Summary

 TemperatureHumidityPressure
High72 °F (Mar 31, 1:00 PM)100% (Mar 19, 5:00 AM)30.57 "Hg (Mar 19, 5:00 AM)
Low34 °F (Mar 26, 6:00 AM)20% (Mar 27, 3:00 PM)29.71 "Hg (Mar 19, 11:00 AM)
Average56 °F60%30.09 "Hg
* Reported Mar 18 11:00 AM — Apr 2 11:00 AM, Kyoto, Weather by CustomWeather, © 2015

Note: Actual official high and low records may vary slightly from our data, if they occured in-between our weather recording intervals... More about our weather records

Advertising

Kyoto weather history for previous 24 hours

 ConditionsComfort  
Time TempWeatherWind HumidityBarometerVisibility
11:00 AM
Thu, Apr 2
63 °FScattered clouds.9 mph45%30.04 "HgN/A
10:00 AM59 °FScattered clouds.12 mph48%30.04 "HgN/A
9:00 AM57 °FPassing clouds.8 mph59%30.07 "HgN/A
8:00 AM55 °FPassing clouds.7 mph55%30.07 "HgN/A
7:00 AM54 °FPassing clouds.8 mph63%30.04 "HgN/A
6:00 AM52 °FPassing clouds.6 mph67%30.07 "HgN/A
5:00 AM52 °FPassing clouds.5 mph72%30.07 "HgN/A
8:00 PM
Wed, Apr 1
55 °FPartly cloudy.20 mph77%29.95 "HgN/A
7:00 PM55 °FScattered showers. Partly cloudy.18 mph82%29.92 "HgN/A
6:00 PM57 °FSprinkles. Broken clouds.13 mph82%29.86 "HgN/A
5:00 PM63 °FScattered showers. Broken clouds.7 mph88%29.83 "Hg5 mi
4:00 PM63 °FSprinkles. Broken clouds.5 mph88%29.80 "Hg4 mi
3:00 PM61 °FSprinkles. Broken clouds.6 mph94%29.83 "Hg4 mi
2:00 PM61 °FSprinkles. Fog.9 mph94%29.83 "Hg3 mi
1:50 PM61 °FSprinkles. Fog.10 mph94%29.83 "Hg3 mi
1:00 PM61 °FSprinkles. Fog.9 mph94%29.86 "Hg3 mi
12:00 PM61 °FSprinkles. Fog.12 mph94%29.89 "Hg3 mi
Weather by CustomWeather, © 2015

See weather overviewHow to use our weather pages